Regional Weather Roundup
Issued by NWS Newport/Morehead, NC

Current Version | Previous Version | Graphics & Text | Print | Product List | Glossary On
Versions: 1 2 3 4 5 6 7 8 9 10 11 12 13 14 15 16 17 18 19 20 21 22 23 24 25 26 27 28 29 30 31 32 33 34 35 36 37 38 39 40 41 42 43 44 45 46 47 48 49 50
000 ASUS42 KMHX 282025 RWRMHX WEATHER ROUNDUP FOR EASTERN NORTH CAROLINA NATIONAL WEATHER SERVICE NEWPORT/MOREHEAD CITY NC 400 PM EDT SUN AUG 28 2016 NOTE: "FAIR" INDICATES FEW OR NO CLOUDS BELOW 12,000 FEET WITH NO SIGNIFICANT WEATHER AND/OR OBSTRUCTIONS TO VISIBILITY NCZ015>017-031-032-045>047-102-103-282100- NORTH COAST CITY SKY/WX TMP DP RH WIND PRES REMARKS EDENTON CLOUDY 85 73 66 E9 30.13S ELIZABETH CITY PTSUNNY 84 74 71 NE16 30.14R KITTY HAWK CLOUDY 82 80 95 NE8 30.11F MANTEO CLOUDY 80 79 96 NE14 30.12F $$ NCZ045>047-081-094-103-104-282100- CENTRAL COAST CITY SKY/WX TMP DP RH WIND PRES REMARKS FRISCO PTSUNNY 82 76 81 NE5 30.10F $$ NCZ095-097-098-100-101-282100- SOUTHERN COAST CITY SKY/WX TMP DP RH WIND PRES REMARKS BEAUFORT CLOUDY 84 78 82 N8 30.09F CEDAR ISLAND NOT AVBL JACKSONVILLE MOSUNNY 82 73 74 NE14 30.10F PINEY ISLAND NOT AVBL WILMINGTON CLOUDY 78 73 84 NE5 30.10F THUNDER $$ NCZ011>013-027>030-043-044-078>080-089-090>093-098-282100- COASTAL PLAIN CITY SKY/WX TMP DP RH WIND PRES REMARKS AHOSKIE MOSUNNY 87 69 54 N10 30.13S CLINTON CLOUDY 87 73 64 NE5 30.11F ELIZABETHTOWN CLOUDY 86 72 63 N3 30.10F GOLDSBORO LGT RAIN 80 79 97 E15 30.11S GREENVILLE LGT RAIN 81 77 89 CALM 30.13F HAVELOCK HVY RAIN 78 74 87 W7 30.12S VSB 1 KENANSVILLE HVY RAIN 81 75 83 E7 30.13R KINSTON CLOUDY 75 73 94 CALM 30.13F NEW BERN LGT RAIN 78 75 90 CALM 30.12F RICHLANDS LGT RAIN 74 72 93 CALM 30.13F ROCKY MOUNT CLOUDY 86 71 60 NE7 30.12F WASHINGTON CLOUDY 78 75 91 CALM 30.11F WHITEVILLE CLOUDY 84 72 65 N6 30.08F $$ AMZ130-135-150-152-154-156-158-170-250-252-270-ANZ085-086-088-633-658-670-282100- MARINE OBSERVATIONS STATION/POSITION TIME TEMP WIND PRES WAVE SWELL AIR SEA DIR/SP/G HT/PER HT/PER (UTC) (F) (DEG/KT/KT) (MB) (FT/S) (FT/S) CHESAPEAKE LIGHT NOT AVBL 64 E VA BEACH 1950 81 81 40/ 17/ 21 1019.5 4/ 8 2/ 8 DUCK 2000 80 77 40/ 16/ 18 1019.6 2 E DUCK 1911 78 N/A 5/ 5 OREGON INLET 2000 83 79 40/ 8/ 11 1019.4 13E OREGON INLT 2000 81 N/A 3/ 6 3/ 6 HATTERAS CG 2000 81 83 40/ 5/ 6 1018.9 DIAMOND BUOY 1950 84 85 70/ 10/ 12 1018.8 3/ 8 3/ 8 CAPE LOOKOUT 2000 82 50/ 9/ 9 1018.6 BEAUFORT LAB 2000 82 82 10/ 6/ 8 1018.5 30 SE NEW RVR IN 2008 84 84 60/ 10/ 14 1018.5 30 SE NEW RVR IN 1925 84 N/A 3/ 8 27 SE WRIGHTSVLE 2008 83 84 20/ 14/ 17 1018.5 5 SE WRIGHTSVLE 2008 82 83 350/ 10/ 12 1019.8 225 S CAPE HAT 1950 83 85 40/ 8/ 10 1016.6 4/15 3/15 41 SE CHARLESTON 1950 83 85 50/ 10/ 12 1017.0 3/ 8 3/ 8 $$

USA.gov is the U.S. government's official web portal to all federal, state and local government web resources and services.